Wind_Speed
22 17 12 13 12 11 13 15 17 17 16 15 18 20 19 17 16 16 15 15 15 14 14 14 17 18 22 25 28 29 29 25 14 9 8 3 4 3 7 13 13 15 19 22 26 27 30 31 32
15 16 14 10 12 10 11 12 18 20 24 20 20 18 16 15 13 12 10 10 10 14 16 17 17 18 21 23 22 22 20 15 10 8 8 5 9 7 11 17 16 19 20 23 27 27 29 31 32
10 6 2 8 12 10 13 21 22 27 33 26 22 22 22 19 19 18 15 12 10 10 12 13 12 13 15 16 16 16 16 14 14 13 10 9 10 7 15 16 20 20 23 26 26 26 27 30 33
10 6 5 3 8 13 21 23 29 35 40 39 34 31 32 31 30 31 32 31 29 27 25 23 21 20 19 18 15 12 8 9 11 12 9 15 11 7 15 19 21 23 26 26 26 25 28 31 34
9 4 4 11 16 19 25 27 28 33 37 42 44 39 33 32 30 28 27 27 25 25 26 26 28 28 24 19 13 8 5 4 10 12 13 22 15 10 19 22 21 24 27 25 27 26 26 30 29
13 14 9 16 16 19 23 28 29 31 34 39 40 44 43 37 32 29 28 27 27 28 30 31 32 33 28 23 16 11 9 9 14 17 16 20 18 20 25 22 22 26 28 27 27 26 24 26 28
9 15 12 17 16 19 23 27 28 30 31 33 35 41 40 45 44 38 34 30 29 30 32 34 36 35 34 30 24 23 21 22 23 23 20 23 28 31 26 23 25 31 29 28 25 26 24 24 24
10 11 12 18 18 20 22 24 27 29 32 31 32 34 35 39 40 41 42 42 36 34 36 38 39 39 39 37 36 35 34 33 32 30 30 33 38 33 29 24 29 32 30 26 23 22 21 21 22
9 9 16 16 18 20 20 22 24 28 30 31 33 34 29 32 34 37 40 44 42 40 39 40 42 41 41 42 42 40 41 39 39 40 45 44 40 35 29 28 29 28 24 20 21 23 22 19 16
13 17 15 17 22 20 18 18 22 22 24 25 27 29 30 30 29 30 34 37 39 41 39 39 41 42 42 43 44 43 43 44 46 46 43 41 38 32 32 32 28 24 20 20 22 21 17 14 14
18 18 17 25 20 18 16 16 17 19 20 22 21 21 25 26 26 26 26 29 33 38 37 37 37 38 37 39 40 39 36 35 37 38 37 37 32 29 29 27 24 25 21 17 15 13 13 13 13
20 18 18 21 17 14 14 14 14 15 15 18 22 20 20 20 24 25 27 24 27 32 35 34 34 33 32 33 33 36 36 33 32 31 30 28 24 22 26 21 16 19 18 17 11 12 12 11 12
20 18 16 18 15 15 13 12 10 10 11 13 18 19 20 21 17 20 24 25 25 27 30 31 30 30 29 26 27 27 29 30 30 27 24 21 19 15 16 14 11 11 11 10 11 10 10 6 4
16 17 14 14 14 10 6 5 5 6 8 11 13 16 19 18 17 16 18 19 21 24 26 27 30 25 27 29 26 22 19 19 18 16 13 10 10 11 7 4 4 3 5 4 1 4 8 11 6
12 13 13 10 9 6 5 3 2 2 7 12 14 12 12 15 12 14 17 15 17 20 22 22 25 24 22 26 27 25 22 19 17 14 10 5 3 3 3 3 2 6 7 4 4 6 13 13 7
12 9 9 11 10 9 9 7 7 10 12 12 14 12 12 9 10 10 13 13 13 14 16 15 17 20 21 21 27 27 22 15 17 13 13 12 12 9 7 7 6 6 7 6 9 8 8 8 4
16 16 14 12 13 13 13 14 13 13 14 13 13 16 12 8 9 12 14 11 13 13 13 14 10 13 14 17 19 20 20 21 9 12 15 10 8 13 10 9 8 6 6 8 6 5 6 12 16
18 19 19 19 20 21 20 19 21 19 19 18 16 14 16 11 8 10 14 13 8 7 12 12 9 7 8 8 9 10 14 18 13 6 16 7 14 11 11 11 9 8 8 7 7 6 5 8 10
21 22 23 23 24 24 24 24 24 24 24 23 22 21 20 17 13 12 10 16 14 10 8 12 10 10 13 13 13 9 9 13 13 13 17 19 16 13 19 12 17 15 13 11 10 13 12 9 7
24 27 28 28 27 26 28 28 27 29 28 29 27 27 24 24 22 20 18 18 21 16 16 15 17 15 14 19 20 20 20 15 15 14 21 26 23 18 18 20 19 23 16 14 14 14 14 16 14
32 32 28 34 32 32 33 32 31 31 30 31 32 30 31 29 26 25 27 27 24 25 22 20 20 24 22 23 23 24 27 24 21 19 30 28 29 27 25 21 23 25 24 23 19 18 19 20 18
40 37 33 34 34 33 34 36 38 37 37 36 37 38 36 33 28 29 34 33 31 30 29 26 27 28 29 31 31 32 32 27 27 30 32 29 29 26 29 27 25 26 26 27 26 26 23 24 25
44 45 45 47 47 45 44 42 40 42 41 41 40 37 36 37 33 32 35 35 37 36 36 35 33 31 34 35 38 39 36 31 31 35 30 25 24 28 30 28 32 30 34 36 36 35 35 33 33
48 48 49 49 50 48 45 45 47 45 44 44 44 43 41 42 43 43 40 38 42 42 44 43 39 37 40 41 41 38 34 37 37 29 35 30 28 28 31 35 35 38 38 41 43 45 45 45 40
55 53 53 55 54 54 53 54 52 50 49 46 45 49 50 52 49 49 48 47 44 46 45 44 43 46 43 34 29 27 34 32 29 31 30 34 35 37 30 34 40 39 40 47 41 48 50 47 45
61 61 60 59 60 60 59 57 60 56 57 57 56 51 52 52 47 51 50 49 47 45 42 47 43 37 32 34 29 36 32 31 30 39 39 42 40 41 42 42 39 35 37 47 48 55 51 50 54
57 59 59 59 59 60 63 65 68 66 64 64 64 65 64 68 64 59 58 55 51 44 45 46 44 45 42 46 47 43 38 36 34 38 47 50 46 45 36 44 40 43 45 53 61 62 61 67 62
61 60 60 60 61 61 62 64 67 70 71 73 73 73 72 69 70 72 73 70 63 62 61 56 52 42 47 50 53 47 43 48 36 27 53 47 56 43 53 46 47 49 53 56 66 72 78 75 74
58 58 60 61 62 63 63 66 67 67 70 71 72 73 74 75 75 74 77 78 77 74 70 65 55 39 55 47 51 50 56 45 47 47 57 52 52 63 68 57 58 60 64 72 80 84 82 82 81
50 49 49 50 51 52 50 52 59 60 62 63 62 61 65 68 71 74 76 77 77 78 76 66 63 70 68 63 51 49 50 55 49 58 63 59 59 66 72 69 72 76 77 78 84 87 91 88 86
Wind_Direction
114 106 89 60 36 359 353 354 351 7 7 359 357 347 339 336 334 327 322 321 325 318 303 293 284 277 279 282 282 283 289 293 291 278 259 183 153 117 41 104 104 86 94 91 96 89 90 84 79
130 84 70 36 4 353 4 18 44 44 37 21 12 3 357 354 348 356 351 326 297 294 294 297 301 295 290 292 291 287 280 272 247 233 184 168 144 109 102 106 103 106 100 101 98 97 92 87 80
146 146 71 334 11 32 57 68 58 55 51 45 37 36 44 45 42 42 39 39 37 43 43 32 13 347 331 321 312 299 289 266 242 219 208 172 148 127 120 105 108 107 108 109 100 104 99 90 83
131 112 47 33 53 81 83 79 69 62 58 56 57 61 66 67 64 67 66 67 65 59 51 40 24 9 359 352 340 328 305 261 226 198 182 160 150 140 127 111 115 114 110 109 106 102 99 93 86
139 160 77 93 101 91 91 80 72 64 59 58 58 61 62 59 59 59 58 57 56 55 47 36 29 23 17 11 4 15 15 215 192 168 157 158 170 137 117 118 118 113 114 112 107 108 101 93 89
115 84 83 99 103 101 94 81 73 67 63 58 60 61 62 63 63 62 65 68 65 65 52 43 35 30 30 28 29 50 78 114 136 142 142 155 153 125 118 121 117 113 113 113 108 110 105 101 97
83 71 72 110 104 106 96 87 80 71 67 61 61 64 61 68 68 67 66 65 69 60 53 47 41 40 44 44 55 66 81 101 114 126 125 120 121 121 122 120 112 115 115 114 117 110 102 106 102
66 72 116 120 121 114 98 91 82 71 66 59 58 63 62 64 65 63 62 62 63 60 54 50 47 47 52 59 67 79 87 93 101 108 113 115 120 118 109 113 115 117 116 118 116 107 104 104 98
111 122 138 133 127 117 101 92 81 81 73 63 60 57 56 56 59 60 61 59 57 56 56 52 52 52 60 69 73 78 86 94 101 109 114 119 116 111 111 107 113 114 117 115 108 109 108 108 106
133 138 138 144 131 123 109 93 88 78 65 62 57 59 57 56 54 58 61 59 53 53 56 57 55 57 67 74 77 82 89 98 107 114 118 118 115 114 112 103 104 108 113 113 111 103 95 98 103
143 136 133 138 130 123 110 97 88 72 60 46 54 56 59 56 53 56 56 56 58 54 52 57 62 63 69 70 71 75 88 98 109 114 115 118 114 118 116 107 94 88 102 110 112 107 92 85 87
153 147 144 146 139 135 123 110 87 71 55 46 42 46 47 50 58 57 56 53 56 56 55 56 62 71 74 71 69 74 83 89 98 99 105 112 107 108 116 110 85 79 93 100 93 96 89 98 100
155 160 158 164 159 152 135 114 92 79 54 43 40 31 37 41 42 54 55 53 51 51 54 57 58 69 75 74 76 77 83 94 100 101 102 99 90 102 111 98 80 72 71 104 91 50 68 92 83
160 172 167 170 170 165 157 132 97 68 46 28 33 25 31 36 38 41 43 54 51 51 47 55 56 57 67 74 80 83 82 82 91 96 94 85 80 82 70 44 10 351 8 16 213 355 14 2 0
176 162 160 168 176 194 233 265 319 336 348 358 359 8 13 22 33 41 30 33 53 54 55 46 59 65 62 69 69 76 78 73 71 69 69 70 21 354 341 331 336 318 286 287 313 340 327 347 336
194 193 193 198 210 226 230 243 274 298 316 327 334 337 344 0 17 7 15 34 50 52 48 53 59 58 73 73 65 63 58 67 59 57 46 50 44 35 28 2 334 353 5 333 334 11 18 37 27
209 214 222 232 233 238 249 264 275 282 289 295 308 318 331 335 351 341 343 17 34 40 40 29 62 71 65 67 63 65 51 51 47 49 29 24 37 24 15 36 40 24 21 3 343 1 34 41 48
220 227 230 237 243 251 258 264 270 271 277 284 293 290 304 302 308 326 325 333 354 356 22 40 32 48 54 47 44 45 28 15 42 39 18 359 352 355 333 319 327 332 332 333 339 333 5 22 17
224 232 239 245 246 248 252 258 261 268 278 283 286 284 290 294 295 296 290 299 318 315 299 339 15 8 0 353 342 342 349 358 344 344 343 354 345 317 319 304 292 284 278 300 312 316 319 330 343
240 245 248 245 249 250 255 263 256 264 272 274 270 277 282 284 280 280 282 286 293 301 298 300 307 324 338 345 344 334 319 325 336 329 334 322 326 315 313 290 291 289 278 277 282 291 298 300 306
249 253 249 254 254 259 262 263 262 260 268 271 272 269 279 274 270 271 281 283 286 288 290 288 289 297 304 317 327 329 317 303 307 309 313 311 316 308 305 294 288 284 268 271 281 279 278 275 285
253 249 245 247 253 256 263 263 263 263 265 268 273 273 273 270 271 274 279 279 282 283 278 282 286 290 295 298 310 315 310 297 291 301 306 299 299 304 295 294 287 281 271 273 276 270 274 279 287
258 258 257 255 254 256 260 260 264 268 267 265 266 262 263 267 271 268 273 276 280 281 281 281 285 287 292 300 306 303 298 288 292 297 301 291 291 274 276 277 292 282 277 275 273 273 280 275 275
256 255 256 257 259 258 256 257 259 259 262 263 260 258 260 267 266 266 270 271 272 278 282 281 284 290 288 292 299 296 287 298 305 308 307 294 284 275 270 277 283 282 282 278 273 277 274 276 279
259 261 259 260 260 259 260 261 258 256 253 249 255 261 264 270 268 269 270 270 264 268 274 278 281 282 287 293 292 296 289 295 292 286 281 285 285 278 267 266 269 276 274 275 269 269 269 272 274
257 259 261 262 264 263 259 259 259 252 253 251 248 248 248 252 256 261 264 264 261 259 260 269 274 272 275 278 271 274 275 267 274 279 273 272 279 276 274 274 267 263 269 270 267 268 265 268 277
258 259 260 260 262 265 264 263 264 263 259 256 254 253 253 260 259 257 252 250 248 250 254 254 259 267 271 270 270 271 270 269 269 287 288 274 292 270 272 269 262 263 257 257 252 267 263 270 273
257 259 260 260 261 261 262 264 264 267 266 265 266 265 263 259 260 264 266 263 259 254 252 254 259 265 270 269 285 269 264 270 260 253 261 275 278 265 275 264 264 267 257 247 249 258 264 266 273
261 259 259 261 261 260 261 261 262 263 267 268 268 268 269 268 268 265 265 266 267 265 261 259 256 260 258 256 261 257 258 260 258 250 254 261 248 264 261 258 272 258 266 257 263 267 267 271 272
259 259 259 259 260 261 261 260 260 262 263 266 268 269 270 269 269 267 265 265 265 266 266 265 259 248 251 245 244 249 257 250 260 255 263 262 255 259 257 251 261 257 258 262 258 263 264 269 272
Height
11012 11016 11018 11019 11020 11019 11018 11015 11011 11006 11002 10996 10991 10987 10984 10982 10980 10978 10976 10974 10973 10973 10972 10972 10970 10968 10966 10964 10962 10960 10958 10957 10957 10958 10959 10961 10962 10963 10963 10962 10963 10965 10965 10965 10965 10965 10964 10962 10961
11015 11017 11019 11020 11021 11020 11017 11015 11011 11009 11003 10995 10990 10985 10982 10980 10978 10975 10973 10972 10971 10971 10970 10968 10966 10964 10961 10958 10955 10954 10953 10954 10955 10956 10959 10961 10963 10964 10964 10964 10965 10966 10966 10966 10967 10967 10967 10965 10964
11018 11020 11022 11022 11022 11021 11019 11016 11015 11011 11004 10997 10991 10986 10983 10981 10978 10975 10972 10970 10969 10969 10968 10966 10964 10961 10956 10952 10949 10947 10947 10948 10951 10954 10957 10961 10962 10966 10966 10966 10966 10967 10968 10969 10969 10970 10971 10969 10967
11020 11022 11023 11023 11022 11021 11019 11019 11017 11013 11007 11001 10995 10990 10987 10984 10982 10979 10976 10973 10972 10970 10969 10966 10962 10957 10951 10946 10943 10939 10940 10941 10944 10950 10955 10960 10964 10967 10968 10967 10968 10969 10971 10972 10972 10974 10974 10972 10971
11022 11023 11023 11023 11023 11022 11022 11020 11019 11016 11012 11006 10999 10995 10991 10988 10985 10982 10980 10977 10975 10973 10971 10968 10962 10955 10948 10943 10938 10935 10934 10936 10941 10948 10953 10959 10964 10968 10969 10970 10971 10972 10974 10975 10976 10977 10977 10975 10974
11023 11023 11024 11022 11024 11024 11024 11022 11021 11018 11015 11011 11006 11000 10996 10993 10989 10988 10985 10983 10980 10977 10974 10969 10962 10955 10948 10942 10937 10935 10933 10936 10941 10947 10953 10958 10964 10969 10973 10974 10975 10976 10978 10979 10979 10979 10979 10978 10978
11024 11023 11024 11025 11027 11027 11027 11025 11024 11022 11019 11016 11011 11006 11004 10999 10996 10995 10991 10987 10984 10981 10977 10971 10965 10958 10949 10944 10940 10937 10937 10938 10942 10949 10955 10961 10967 10972 10975 10977 10979 10980 10982 10982 10982 10981 10981 10981 10981
11024 11025 11026 11027 11029 11029 11028 11028 11026 11024 11023 11020 11016 11011 11009 11005 11002 11000 10996 10991 10989 10986 10981 10975 10969 10962 10955 10950 10947 10943 10943 10945 10948 10953 10959 10965 10972 10976 10980 10981 10983 10985 10986 10987 10986 10985 10986 10986 10985
11024 11027 11027 11029 11029 11030 11030 11030 11029 11026 11025 11023 11020 11017 11014 11011 11008 11004 11001 10998 10995 10992 10986 10981 10976 10969 10963 10959 10957 10954 10952 10954 10957 10960 10966 10972 10977 10981 10984 10986 10988 10990 10991 10991 10990 10989 10989 10989 10990
11026 11028 11028 11030 11030 11031 11032 11032 11031 11029 11028 11026 11024 11021 11019 11015 11012 11010 11006 11003 11001 10997 10993 10988 10984 10979 10974 10970 10968 10967 10966 10966 10967 10970 10974 10979 10983 10986 10989 10990 10992 10994 10994 10994 10993 10992 10992 10992 10992
11027 11028 11029 11030 11031 11032 11032 11033 11033 11032 11031 11029 11027 11025 11023 11020 11017 11014 11011 11008 11005 11002 10999 10995 10992 10989 10985 10982 10980 10979 10979 10978 10979 10980 10983 10986 10989 10992 10994 10996 10997 10997 10997 10997 10997 10996 10995 10994 10994
11028 11030 11030 11031 11032 11032 11033 11034 11034 11033 11032 11031 11029 11027 11026 11024 11021 11017 11015 11012 11009 11007 11004 11001 11000 10997 10995 10991 10990 10989 10988 10989 10991 10992 10993 10994 10996 10998 10999 11000 11001 11001 11001 11000 11000 10999 10998 10997 10997
11028 11030 11031 11032 11032 11033 11034 11034 11033 11033 11033 11032 11031 11029 11028 11026 11025 11022 11019 11017 11014 11011 11009 11007 11005 11004 11002 11000 10998 10997 10997 10997 10998 11000 11002 11002 11003 11003 11004 11004 11004 11004 11005 11003 11002 11002 11000 11000 11000
11028 11030 11032 11033 11034 11035 11035 11034 11034 11033 11033 11033 11032 11031 11029 11028 11027 11025 11023 11020 11018 11015 11013 11011 11009 11008 11007 11006 11005 11003 11003 11004 11005 11005 11006 11006 11007 11007 11007 11006 11005 11004 11005 11005 11004 11003 11002 11001 11000
11029 11030 11032 11033 11034 11035 11035 11034 11035 11034 11034 11033 11033 11032 11031 11030 11029 11028 11025 11024 11021 11019 11017 11015 11013 11012 11012 11010 11009 11009 11009 11008 11007 11008 11009 11009 11008 11007 11006 11005 11004 11003 11003 11003 11003 11002 11000 10999 10998
11029 11030 11031 11030 11032 11033 11034 11034 11033 11032 11032 11033 11031 11031 11031 11030 11029 11029 11027 11026 11024 11022 11020 11018 11017 11016 11015 11014 11012 11012 11013 11012 11011 11010 11010 11010 11009 11009 11007 11005 11003 11003 11001 11001 11001 11001 11000 10997 10996
11027 11028 11029 11030 11031 11031 11032 11032 11031 11031 11030 11030 11030 11028 11029 11029 11029 11028 11028 11026 11026 11024 11022 11021 11019 11018 11017 11017 11016 11015 11014 11014 11014 11013 11013 11012 11011 11011 11009 11007 11005 11003 11002 11002 11002 11002 11001 11000 10998
11025 11026 11027 11027 11028 11028 11028 11028 11027 11027 11026 11026 11027 11028 11027 11027 11027 11026 11024 11026 11025 11025 11024 11023 11022 11021 11019 11018 11017 11017 11016 11014 11014 11014 11015 11013 11013 11011 11010 11009 11006 11005 11003 11001 11001 11001 11000 10999 10998
11022 11023 11023 11024 11024 11024 11024 11024 11023 11023 11022 11022 11022 11022 11022 11023 11023 11023 11022 11020 11022 11022 11022 11023 11022 11021 11020 11019 11017 11015 11014 11013 11013 11012 11011 11011 11012 11012 11011 11008 11006 11003 11000 11000 11000 10998 10998 10998 10996
11018 11019 11019 11019 11019 11019 11019 11019 11020 11019 11018 11018 11017 11018 11018 11017 11018 11018 11018 11017 11016 11017 11019 11019 11019 11019 11017 11016 11015 11014 11013 11011 11010 11009 11009 11006 11006 11006 11006 11006 11003 11002 11000 10999 10998 10998 10996 10994 10994
11011 11012 11013 11011 11012 11013 11012 11012 11012 11012 11012 11012 11010 11011 11011 11011 11011 11011 11012 11013 11012 11012 11012 11014 11013 11013 11013 11013 11012 11010 11008 11007 11006 11006 11004 11002 11001 11000 10999 11000 11000 10999 10996 10997 10995 10994 10993 10992 10992
11003 11005 11006 11005 11005 11007 11006 11005 11004 11004 11004 11005 11005 11005 11004 11004 11005 11005 11005 11006 11007 11006 11007 11007 11007 11007 11007 11007 11006 11006 11003 11001 11000 10999 10999 10997 10996 10994 10992 10992 10991 10991 10991 10990 10989 10988 10988 10988 10989
10993 10994 10996 10997 10997 10999 10999 10998 10994 10993 10995 10995 10996 10997 10997 10997 10997 10998 10997 10997 10997 10999 11000 11001 11002 11000 11000 11001 11000 10997 10994 10994 10994 10994 10992 10990 10988 10988 10986 10985 10984 10983 10983 10981 10981 10980 10981 10981 10981
10982 10985 10985 10986 10985 10988 10987 10987 10986 10989 10987 10984 10986 10987 10988 10988 10988 10989 10989 10990 10990 10990 10990 10992 10994 10995 10994 10992 10990 10987 10987 10988 10988 10986 10982 10980 10979 10977 10976 10976 10975 10975 10975 10975 10973 10971 10970 10971 10972
10971 10973 10973 10973 10975 10978 10977 10970 10975 10976 10978 10977 10975 10976 10977 10977 10976 10977 10977 10978 10980 10980 10982 10983 10983 10984 10983 10983 10982 10981 10981 10979 10977 10974 10971 10969 10968 10967 10964 10964 10963 10964 10965 10964 10965 10963 10961 10960 10961
10960 10961 10962 10961 10961 10962 10963 10959 10955 10963 10963 10966 10967 10967 10965 10963 10964 10964 10964 10965 10966 10969 10971 10971 10973 10972 10971 10972 10972 10971 10971 10969 10968 10966 10962 10957 10955 10955 10954 10954 10954 10955 10953 10949 10949 10950 10950 10952 10952
10946 10945 10947 10949 10946 10944 10943 10944 10937 10942 10948 10948 10950 10952 10955 10952 10951 10952 10954 10953 10953 10957 10960 10961 10962 10964 10963 10960 10959 10958 10956 10956 10959 10954 10950 10944 10939 10941 10940 10940 10940 10942 10943 10941 10937 10933 10934 10938 10941
10931 10933 10932 10932 10932 10933 10929 10929 10923 10922 10928 10930 10932 10935 10937 10942 10940 10938 10938 10937 10941 10946 10947 10951 10956 10955 10954 10950 10947 10948 10944 10944 10946 10945 10957 10939 10934 10933 10925 10928 10925 10927 10928 10925 10920 10917 10914 10919 10923
10915 10917 10917 10917 10917 10916 10916 10913 10916 10913 10909 10912 10915 10916 10917 10920 10923 10923 10919 10918 10919 10925 10931 10936 10943 10949 10929 10936 10925 10927 10930 10929 10931 10933 10931 10928 10925 10924 10918 10913 10910 10910 10911 10912 10907 10904 10897 10897 10904
10901 10902 10902 10902 10902 10903 10903 10898 10899 10899 10899 10899 10899 10898 10898 10898 10898 10899 10901 10900 10900 10901 10907 10911 10917 10920 10910 10917 10913 10911 10911 10910 10908 10912 10911 10910 10908 10907 10905 10899 10898 10895 10893 10894 10890 10884 10880 10877 10875